Weather History for Wichita, KS

Change the Weather History Date:

Friday, November 2, 2012

  Actual Average Record
Temperature  
Mean Temperature 68 °F 52 °F  
Max Temperature 86 °F 63 °F 86 °F (2012)
Min Temperature 50 °F 41 °F 14 °F (1966)
Degree Days  
Heating Degree Days 0 13  
Month to date heating degree days 7 26  
Since 1 July heating degree days 267 312  
Cooling Degree Days 3 0  
Month to date cooling degree days 3 0  
Year to date cooling degree days 2304 1684  
Growing Degree Days 18 (Base 50)    
Moisture  
Dew Point 42 °F    
Average Humidity 44    
Maximum Humidity 71    
Minimum Humidity 17    
Precipitation  
Precipitation 0.00 in 0.06 in 1.77 in (1968)
Month to date precipitation 0.00 0.11  
Year to date precipitation 24.12 30.12  
Snow  
Snow 0.00 in 0.00 in 1.40 in (1967)
Month to date snowfall 0.0 0.0  
Since 1 July snowfall 0.0 0.1  
Since 1 September snowfall 0.0 0.1  
Snow Depth 0.00 in    
Sea Level Pressure  
Sea Level Pressure 29.84 in    
Wind  
Wind Speed 13 mph (SSE)    
Max Wind Speed 23 mph    
Max Gust Speed 29 mph    
Visibility 10 miles    
Events      
T = Trace of Precipitation, MM = Missing Value Source: NWS Daily Summary

Daily Weather History Graph

Daily Weather History Graph

Search for Another Location

Airport:

Trip Planner

Search our weather history database for the weather conditions in past years. The results will help you decide how hot, cold, wet, or windy it might be!

Date:

Astronomy

Nov. 02, 2012 Rise Set
Actual Time 7:56 AM CDT 6:29 PM CDT
Civil Twilight 7:29 AM CDT 6:56 PM CDT
Nautical Twilight 6:58 AM CDT 7:27 PM CDT
Astronomical Twilight 6:27 AM CDT 7:58 PM CDT
Moon 9:20 PM CDT (11/2) 11:15 AM CDT (11/2)
Length of Visible Light 11h 27m
Length of Day
10h 33m
Waning Gibbous, 87% of the Moon is Illuminated
Nov 2
Waning Gibbous
Nov 6
Last Quarter
Nov 13
New
Nov 20
First Quarter
Nov 28
Full

Hourly Weather History & Observations

Time (CDT) Temp. Dew Point Humidity Pressure Visibility Wind Dir Wind Speed Gust Speed Precip Events Conditions
12:53 AM 53.1 °F 42.1 °F 66% 29.90 in 10.0 mi East 4.6 mph - N/A   Scattered Clouds
1:53 AM 55.0 °F 41.0 °F 59% 29.89 in 10.0 mi East 5.8 mph - N/A   Scattered Clouds
2:53 AM 53.1 °F 41.0 °F 64% 29.88 in 10.0 mi SE 5.8 mph - N/A   Partly Cloudy
3:53 AM 51.1 °F 41.0 °F 68% 29.87 in 10.0 mi SE 4.6 mph - N/A   Partly Cloudy
4:53 AM 52.0 °F 42.1 °F 69% 29.85 in 10.0 mi SSE 6.9 mph - N/A   Scattered Clouds
5:53 AM 53.1 °F 43.0 °F 69% 29.85 in 10.0 mi East 8.1 mph - N/A   Mostly Cloudy
6:53 AM 51.1 °F 43.0 °F 74% 29.85 in 10.0 mi ESE 6.9 mph - N/A   Mostly Cloudy
7:53 AM 51.1 °F 43.0 °F 74% 29.84 in 10.0 mi SE 8.1 mph - N/A   Mostly Cloudy
8:53 AM 54.0 °F 45.0 °F 72% 29.85 in 10.0 mi SSE 11.5 mph - N/A   Mostly Cloudy
9:53 AM 60.1 °F 46.0 °F 60% 29.84 in 10.0 mi SSE 12.7 mph 19.6 mph N/A   Mostly Cloudy
10:53 AM 64.9 °F 46.9 °F 52% 29.83 in 10.0 mi SSE 11.5 mph - N/A   Mostly Cloudy
11:53 AM 73.9 °F 44.1 °F 34% 29.81 in 10.0 mi South 13.8 mph 23.0 mph N/A   Mostly Cloudy
12:53 PM 77.0 °F 43.0 °F 30% 29.78 in 10.0 mi SSW 17.3 mph 24.2 mph N/A   Mostly Cloudy
1:53 PM 81.0 °F 41.0 °F 24% 29.76 in 10.0 mi SSW 18.4 mph 26.5 mph N/A   Mostly Cloudy
2:53 PM 84.0 °F 41.0 °F 22% 29.74 in 10.0 mi SSW 19.6 mph 24.2 mph N/A   Mostly Cloudy
3:53 PM 84.0 °F 39.0 °F 20% 29.73 in 10.0 mi West 12.7 mph - N/A   Mostly Cloudy
4:53 PM 82.0 °F 34.0 °F 18% 29.75 in 10.0 mi WNW 11.5 mph - N/A   Mostly Cloudy
5:53 PM 73.0 °F 35.1 °F 25% 29.78 in 10.0 mi NW 13.8 mph - N/A   Mostly Cloudy
6:53 PM 68.0 °F 37.9 °F 33% 29.82 in 10.0 mi NNW 10.4 mph - N/A   Mostly Cloudy
7:53 PM 64.0 °F 41.0 °F 43% 29.86 in 10.0 mi NNW 13.8 mph - N/A   Mostly Cloudy
8:53 PM 62.1 °F 44.1 °F 52% 29.89 in 10.0 mi NNW 17.3 mph - N/A   Mostly Cloudy
9:53 PM 59.0 °F 43.0 °F 55% 29.92 in 10.0 mi NNW 17.3 mph - N/A   Mostly Cloudy
10:53 PM 57.0 °F 41.0 °F 55% 29.95 in 10.0 mi NNW 17.3 mph 26.5 mph N/A   Mostly Cloudy
11:53 PM 54.0 °F 39.9 °F 59% 29.97 in 10.0 mi NNW 19.6 mph 24.2 mph N/A   Partly Cloudy